パンスターズ彗星

C/2016 R2 ( PanSTARRS )

English version
Home page
Updated on December 31, 2016

---------------------------------------------------------------------

・ プロフィール

発見日 2016年9月7日
発見光度 19.1等
発見者 Pan-STARRS 1 telescope (Haleakala)

・ 写真集

・ 軌道要素

Epoch 2018 May 2.0 TT = JDT 2458240.5
T 2018 May  9.50236 TT                                  MPCW
q   2.6020865            (2000.0)            P               Q
z  +0.0013039      Peri.   33.19205     -0.14720498     -0.52444368
 +/-0.0000830      Node    80.56561     +0.61563119     -0.71219154
e   0.9966070      Incl.   58.22498     +0.77416338     +0.46662838
From 74 observations 2016 Aug. 30-Nov. 8, mean residual 0".5.

・ 星図

・ 光度変化

        m1 = 4.0 + 5 logΔ + 10.0 log r

---------------------------------------------------------------------

軌道要素はM.P.E.C. 2016-V116に掲載されたものです。
星図はステラナビゲータ Ver.10 (アストロアーツ) で作成したものです。
光度グラフはComet for Windowsで作成したものです。

---------------------------------------------------------------------

Copyright(C) Seiichi Yoshida (comet@aerith.net). All rights reserved.